Weather History for Sisseton, SD

Change the Weather History Date:

Thursday, July 12, 2012

  Actual Average Record
Temperature  
Mean Temperature 80 °F 71 °F  
Max Temperature 92 °F 83 °F 109 °F (1936)
Min Temperature 68 °F 60 °F 47 °F (1950)
Degree Days  
Heating Degree Days 0 0  
Month to date heating degree days 0 3  
Since 1 June heating degree days 27 65  
Since 1 July heating degree days 0 3  
Cooling Degree Days 15 7  
Month to date cooling degree days 136 73  
Year to date cooling degree days 355 190  
Since 1 June cooling degree days 297 167  
Growing Degree Days 30 (Base 50)    
Moisture  
Dew Point 64 °F    
Average Humidity 63    
Maximum Humidity 84    
Minimum Humidity 41    
Precipitation  
Precipitation 0.05 in 0.12 in 1.39 in (1992)
Month to date precipitation 0.11 1.37  
Year to date precipitation 11.01 12.09  
Sea Level Pressure  
Sea Level Pressure 29.84 in    
Wind  
Wind Speed 9 mph (SSW)    
Max Wind Speed 30 mph    
Max Gust Speed 36 mph    
T = Trace of Precipitation, MM = Missing Value Source: NWS Daily Summary

Daily Weather History Graph

Daily Weather History Graph

Search for Another Location

Airport:

Trip Planner

Search our weather history database for the weather conditions in past years. The results will help you decide how hot, cold, wet, or windy it might be!

Date:

Astronomy

Jul. 12, 2012 Rise Set
Actual Time 5:50 AM CDT 9:15 PM CDT
Civil Twilight 5:14 AM CDT 9:52 PM CDT
Nautical Twilight 4:25 AM CDT 10:41 PM CDT
Astronomical Twilight 3:23 AM CDT 11:42 PM CDT
Moon 1:02 AM CDT (7/12) 3:45 PM CDT (7/12)
Length of Visible Light 16h 38m
Length of Day
15h 25m
Waning Crescent, 35% of the Moon is Illuminated
Jul 12
Waning Crescent
Jul 18
New
Jul 26
First Quarter
Aug 1
Full
Aug 9
Last Quarter

Hourly Weather History & Observations

Time (CDT) Temp. Heat Index Dew Point Humidity Pressure Visibility Wind Dir Wind Speed Gust Speed Precip Events Conditions
12:56 AM 70.0 °F - 59.0 °F 68% 29.86 in - South 10.4 mph - N/A   Unknown
1:56 AM 69.1 °F - 59.0 °F 70% 29.85 in - South 4.6 mph - N/A   Unknown
2:56 AM 70.0 °F - 59.0 °F 68% 29.86 in - SSE 5.8 mph - N/A   Unknown
3:56 AM 72.0 °F - 60.1 °F 66% 29.90 in - NE 8.1 mph - N/A   Unknown
4:56 AM 71.1 °F - 62.1 °F 73% 29.90 in - Calm Calm - N/A   Unknown
5:56 AM 69.1 °F - 64.0 °F 84% 29.88 in - SSW 8.1 mph - 0.01 in   Unknown
6:56 AM 70.0 °F - 64.0 °F 81% 29.83 in - SW 17.3 mph - 0.04 in   Unknown
7:56 AM 71.1 °F - 64.0 °F 78% 29.80 in - SSW 16.1 mph - N/A   Unknown
8:56 AM 72.0 °F - 64.0 °F 76% 29.82 in - SSW 10.4 mph - N/A   Unknown
9:56 AM 73.9 °F - 63.0 °F 68% 29.83 in - SSW 9.2 mph - N/A   Unknown
10:56 AM 77.0 °F - 64.0 °F 64% 29.84 in - WSW 10.4 mph - N/A   Unknown
11:56 AM 77.0 °F - 66.0 °F 69% 29.84 in - SSE 9.2 mph - N/A   Unknown
12:56 PM 79.0 °F - 68.0 °F 69% 29.84 in - SSE 11.5 mph - N/A   Unknown
1:56 PM 81.0 °F 84.1 °F 69.1 °F 67% 29.83 in - SSE 9.2 mph - N/A   Unknown
2:56 PM 86.0 °F 90.1 °F 69.1 °F 57% 29.82 in - SE 6.9 mph - N/A   Unknown
3:56 PM 90.0 °F 91.7 °F 64.9 °F 43% 29.80 in - Variable 6.9 mph - N/A   Unknown
4:56 PM 91.9 °F 93.3 °F 64.0 °F 39% 29.80 in - WNW 11.5 mph - N/A   Unknown
5:56 PM 91.0 °F 93.8 °F 66.0 °F 44% 29.79 in - WNW 9.2 mph - N/A   Unknown
6:56 PM 84.0 °F 88.4 °F 70.0 °F 63% 29.81 in - SW 17.3 mph 27.6 mph N/A   Unknown
7:15 PM 78.8 °F - 62.6 °F 57% 29.87 in - SSW 20.7 mph 29.9 mph N/A   Unknown
7:56 PM 77.0 °F - 59.0 °F 54% 29.82 in - SSW 10.4 mph - N/A   Unknown
8:56 PM 77.0 °F - 59.0 °F 54% 29.84 in - SSW 8.1 mph - N/A   Unknown
9:56 PM 73.0 °F - 64.9 °F 76% 29.85 in - SW 8.1 mph - N/A   Unknown
10:56 PM 71.1 °F - 66.0 °F 84% 29.87 in - West 3.5 mph - N/A   Unknown
11:56 PM 71.1 °F - 66.0 °F 84% 29.87 in - WSW 3.5 mph - N/A   Unknown